COSMOS 1275 DEB, 17619

Orbit data source: Space-Track

COSMOS 1275 DEB, 17619 is space debris in LEO originally from a launch on Thu, 04 Jun 1981 UTC launched from the Plesetsk Missile And Space Complex (PKMTR). Debris objects in space refer to the collection of defunct objects orbiting the Earth. Examples of debris include non-operational satellites, rocket bodies, and fragments generated from explosions, collisions, or faulty payload assembly.

Loading next visibility...
Identifier
17619, 1981-053KN
Orbit
LEO
Country
Flag of CISCIS
Related business
Manufacturer
Unknown
Mission
Spacecraft
Bus & Motor
Unknown
Mass
Unknown
Launch date (UTC)
1981-06-04 (45 years ago)
Launch vehicle
Unknown
Launch site
Plesetsk Missile And Space Complex (PKMTR)
Object type
Payload
Rocket body
Debris
Shape & HBR
Unknown shape, 0.1 m
Radar Cross Section
Small (<0.1 m²)

Expand to show TLE details & history
Last TLE update: 1 day ago

TLE from 1 day ago
0 COSMOS 1275 DEB
1 17619U 81053KN  26103.38496272  .00002538  00000-0  84512-3 0  9995
2 17619  82.9389  71.7534 0016290 333.0071 180.1516 14.37262827105850
Epoch: 2026-04-13T09:14Z
TLE epoch observation values (Epoch: 2026-04-13T09:14:20.779Z)
Latitude
26.65867°
Longitude
-91.95585°
Altitude
782.51 km
Speed
7.459 km/s
True Right ascension
16h 32m 49s
True Declination
26° 31' 17"
Sunlit
Object was in full shadow at epoch
Visualization orbit readout
Latitude
Unknown
Longitude
Unknown
Altitude
Unknown
Speed
Unknown
Apparent Right ascension
Unknown
Apparent Declination
Unknown
Sunlit
N/A
Visualization observer readout
Local Sidereal Time
23:25:12
Azimuth
Unknown
Elevation
Unknown
Doppler factor
Unknown
Orbital elements
Apogee altitude
776.255 km
Perigee altitude
752.984 km
Semi-major axis
7,142.757 km
Eccentricity
0.00163
Inclination
82.9389°
RAAN
71.7534°
Arg. of periapsis
333.0071°
True anomaly
180.15111°
Mean anomaly
180.1516°
Eccentric anomaly
180.15135°
Mean motion
3.59538 °/min
Orbital period
100.13 mins
BSTAR
0.00084512
Loading maneuver chart data...
Computing Atmospheric mass density...
Loading historical data...
Loading historical data...
Loading historical data...
Loading historical data...
Loading historical data...
Loading historical data...
Loading historical data...

Documentation

Showing up to 5 results
|